TimeEST,TemperatureF,Dew PointF,Humidity,Sea Level PressureIn,VisibilityMPH,Wind Direction,Wind SpeedMPH,Gust SpeedMPH,PrecipitationIn,Events,Conditions,WindDirDegrees,DateUTC
12:53 AM,23.0,10.9,60,30.15,10.0,WNW,19.6,26.5,N/A,,Overcast,300,2013-02-20 05:53:00
1:53 AM,23.0,10.9,60,30.16,10.0,WNW,17.3,-,N/A,,Overcast,290,2013-02-20 06:53:00
2:53 AM,21.9,12.9,68,30.17,10.0,WNW,11.5,-,0.00,,Overcast,300,2013-02-20 07:53:00
3:53 AM,21.0,9.0,60,30.19,9.0,WNW,16.1,-,0.00,,Overcast,290,2013-02-20 08:53:00
4:53 AM,19.9,10.0,65,30.21,10.0,WNW,17.3,20.7,0.00,,Overcast,300,2013-02-20 09:53:00
5:53 AM,19.0,10.9,71,30.23,4.0,WNW,11.5,-,0.00,Snow,Light Snow,300,2013-02-20 10:53:00
6:53 AM,16.0,8.1,71,30.25,10.0,WNW,15.0,-,0.00,,Mostly Cloudy,300,2013-02-20 11:53:00
7:17 AM,15.8,6.8,68,30.21,10.0,WNW,10.4,-,N/A,,Scattered Clouds,300,2013-02-20 12:17:00
8:20 AM,15.8,6.8,68,30.24,10.0,WNW,12.7,-,0.00,,Partly Cloudy,300,2013-02-20 13:20:00
8:51 AM,15.8,6.8,68,30.26,10.0,WNW,10.4,-,0.00,,Mostly Cloudy,300,2013-02-20 13:51:00
8:53 AM,16.0,7.0,68,30.30,10.0,WNW,11.5,-,0.00,,Mostly Cloudy,290,2013-02-20 13:53:00
9:53 AM,18.0,8.1,65,30.30,10.0,NW,8.1,-,N/A,,Mostly Cloudy,320,2013-02-20 14:53:00
10:12 AM,17.6,6.8,63,30.26,10.0,WNW,10.4,-,N/A,,Partly Cloudy,300,2013-02-20 15:12:00
10:53 AM,19.9,7.0,57,30.31,10.0,West,9.2,-,0.00,,Clear,280,2013-02-20 15:53:00
11:53 AM,23.0,8.1,53,30.32,10.0,WNW,5.8,-,N/A,,Clear,300,2013-02-20 16:53:00
12:53 PM,24.1,9.0,53,30.31,10.0,WNW,12.7,17.3,N/A,,Clear,300,2013-02-20 17:53:00
2:53 PM,28.0,10.9,49,30.29,10.0,West,11.5,-,N/A,,Clear,280,2013-02-20 19:53:00
3:53 PM,28.9,12.0,49,30.29,10.0,NW,13.8,19.6,N/A,,Clear,320,2013-02-20 20:53:00
4:53 PM,28.0,12.0,51,30.29,10.0,WNW,8.1,-,N/A,,Clear,300,2013-02-20 21:53:00
5:53 PM,27.0,12.9,56,30.29,10.0,WNW,8.1,-,N/A,,Clear,300,2013-02-20 22:53:00
6:53 PM,26.1,14.0,60,30.31,10.0,NW,8.1,-,N/A,,Clear,310,2013-02-20 23:53:00
7:53 PM,25.0,15.1,66,30.32,10.0,North,10.4,-,N/A,,Clear,350,2013-02-21 00:53:00
8:53 PM,24.1,15.1,69,30.31,10.0,North,6.9,-,N/A,,Partly Cloudy,360,2013-02-21 01:53:00
9:12 PM,24.8,15.8,69,30.28,10.0,North,6.9,-,N/A,,Mostly Cloudy,360,2013-02-21 02:12:00
9:53 PM,24.1,14.0,65,30.32,10.0,NNE,8.1,-,N/A,,Overcast,20,2013-02-21 02:53:00
10:34 PM,23.0,12.2,63,30.28,10.0,North,5.8,-,N/A,,Scattered Clouds,360,2013-02-21 03:34:00
10:53 PM,21.9,12.9,68,30.32,10.0,North,4.6,-,N/A,,Partly Cloudy,360,2013-02-21 03:53:00
11:53 PM,21.0,12.9,71,30.32,10.0,NNE,4.6,-,N/A,,Clear,20,2013-02-21 04:53:00